Time,TemperatureF,DewpointF,PressureIn,WindDirection,WindDirectionDegrees,WindSpeedMPH,WindSpeedGustMPH,Humidity,HourlyPrecipIn,Conditions,Clouds,dailyrainin,SoftwareType,DateUTC
2013-10-07 00:13:00,55.6,54.0,29.64,WSW,238,2.0,-999.0,95,-99.99,,,0.00,weatherlink.com 1.10,2013-10-07 04:13:00,
2013-10-07 00:28:00,55.4,54.0,29.65,WSW,238,2.0,-999.0,95,-99.99,,,0.00,weatherlink.com 1.10,2013-10-07 04:28:00,
2013-10-07 00:43:00,55.2,54.0,29.63,WSW,238,1.0,-999.0,95,-99.99,,,0.00,weatherlink.com 1.10,2013-10-07 04:43:00,
2013-10-07 00:58:00,55.1,54.0,29.63,WSW,238,0.0,-999.0,95,-99.99,,,0.00,weatherlink.com 1.10,2013-10-07 04:58:00,
2013-10-07 01:13:00,55.1,54.0,29.63,WSW,238,1.0,-999.0,95,-99.99,,,0.00,weatherlink.com 1.10,2013-10-07 05:13:00,
2013-10-07 01:28:00,55.0,54.0,29.63,WSW,238,1.0,-999.0,95,-99.99,,,0.00,weatherlink.com 1.10,2013-10-07 05:28:00,
2013-10-07 01:43:00,54.9,54.0,29.61,WSW,238,0.0,-999.0,95,-99.99,,,0.00,weatherlink.com 1.10,2013-10-07 05:43:00,
2013-10-07 01:58:00,54.8,53.0,29.61,WSW,238,0.0,-999.0,95,-99.99,,,0.00,weatherlink.com 1.10,2013-10-07 05:58:00,
2013-10-07 02:13:00,54.8,53.0,29.60,WSW,241,3.0,-999.0,95,-99.99,,,0.00,weatherlink.com 1.10,2013-10-07 06:13:00,
2013-10-07 02:28:00,54.7,54.0,29.61,WSW,244,3.0,-999.0,96,-99.99,,,0.00,weatherlink.com 1.10,2013-10-07 06:28:00,
2013-10-07 02:43:00,54.8,54.0,29.60,WSW,245,3.0,-999.0,96,-99.99,,,0.00,weatherlink.com 1.10,2013-10-07 06:43:00,
2013-10-07 02:58:00,54.8,54.0,29.60,WSW,247,3.0,-999.0,96,-99.99,,,0.00,weatherlink.com 1.10,2013-10-07 06:58:00,
2013-10-07 03:13:00,54.9,54.0,29.59,WNW,302,4.0,-999.0,96,-99.99,,,0.00,weatherlink.com 1.10,2013-10-07 07:13:00,
2013-10-07 03:29:00,54.7,54.0,29.59,WNW,292,7.0,-999.0,96,-99.99,,,0.00,weatherlink.com 1.10,2013-10-07 07:29:00,
2013-10-07 03:43:00,54.3,53.0,29.59,NW,314,11.0,-999.0,96,-99.99,,,0.00,weatherlink.com 1.10,2013-10-07 07:43:00,
2013-10-07 03:58:00,54.0,53.0,29.59,WNW,298,3.0,-999.0,96,-99.99,,,0.00,weatherlink.com 1.10,2013-10-07 07:58:00,
2013-10-07 04:13:00,53.8,53.0,29.58,NNW,337,4.0,-999.0,96,-99.99,,,0.00,weatherlink.com 1.10,2013-10-07 08:13:00,
2013-10-07 04:29:00,53.3,52.0,29.59,NNW,342,1.0,-999.0,95,-99.99,,,0.00,weatherlink.com 1.10,2013-10-07 08:29:00,
2013-10-07 04:43:00,53.1,52.0,29.58,WNW,296,4.0,-999.0,95,-99.99,,,0.00,weatherlink.com 1.10,2013-10-07 08:43:00,
2013-10-07 04:58:00,52.9,52.0,29.58,WNW,297,5.0,-999.0,95,-99.99,,,0.00,weatherlink.com 1.10,2013-10-07 08:58:00,
2013-10-07 05:13:00,52.9,52.0,29.59,WNW,292,4.0,-999.0,95,-99.99,,,0.00,weatherlink.com 1.10,2013-10-07 09:13:00,
2013-10-07 05:28:00,52.8,52.0,29.59,West,265,5.0,-999.0,95,-99.99,,,0.00,weatherlink.com 1.10,2013-10-07 09:28:00,
2013-10-07 05:43:00,52.5,51.0,29.59,WNW,296,6.0,-999.0,95,-99.99,,,0.00,weatherlink.com 1.10,2013-10-07 09:43:00,
2013-10-07 05:58:00,52.4,51.0,29.59,NW,304,4.0,-999.0,95,-99.99,,,0.00,weatherlink.com 1.10,2013-10-07 09:58:00,
2013-10-07 06:13:00,52.4,51.0,29.59,WNW,294,3.0,-999.0,95,-99.99,,,0.00,weatherlink.com 1.10,2013-10-07 10:13:00,
2013-10-07 06:29:00,52.1,51.0,29.59,NW,309,5.0,-999.0,94,-99.99,,,0.00,weatherlink.com 1.10,2013-10-07 10:29:00,
2013-10-07 06:44:00,51.9,51.0,29.59,West,269,7.0,-999.0,95,-99.99,,,0.00,weatherlink.com 1.10,2013-10-07 10:44:00,
2013-10-07 06:59:00,51.6,50.0,29.60,WNW,287,7.0,-999.0,95,-99.99,,,0.00,weatherlink.com 1.10,2013-10-07 10:59:00,
2013-10-07 07:14:00,51.2,50.0,29.60,WNW,297,6.0,-999.0,94,-99.99,,,0.00,weatherlink.com 1.10,2013-10-07 11:14:00,
2013-10-07 07:29:00,50.8,49.0,29.60,WNW,300,7.0,-999.0,93,-99.99,,,0.00,weatherlink.com 1.10,2013-10-07 11:29:00,
2013-10-07 07:44:00,50.5,49.0,29.61,West,277,4.0,-999.0,93,-99.99,,,0.00,weatherlink.com 1.10,2013-10-07 11:44:00,
2013-10-07 07:59:00,50.4,49.0,29.61,WNW,286,4.0,-999.0,93,-99.99,,,0.00,weatherlink.com 1.10,2013-10-07 11:59:00,
2013-10-07 08:14:00,50.2,48.0,29.61,West,268,5.0,-999.0,93,-99.99,,,0.00,weatherlink.com 1.10,2013-10-07 12:14:00,
2013-10-07 08:29:00,50.1,48.0,29.61,NW,306,6.0,-999.0,93,-99.99,,,0.00,weatherlink.com 1.10,2013-10-07 12:29:00,
2013-10-07 08:44:00,50.0,48.0,29.62,West,278,6.0,-999.0,93,-99.99,,,0.00,weatherlink.com 1.10,2013-10-07 12:44:00,
2013-10-07 08:59:00,49.6,48.0,29.62,WNW,292,8.0,-999.0,94,-99.99,,,0.01,weatherlink.com 1.10,2013-10-07 12:59:00,
2013-10-07 09:14:00,49.4,48.0,29.62,WNW,295,6.0,-999.0,93,-99.99,,,0.01,weatherlink.com 1.10,2013-10-07 13:14:00,
2013-10-07 09:29:00,48.9,47.0,29.63,WNW,286,6.0,-999.0,93,-99.99,,,0.02,weatherlink.com 1.10,2013-10-07 13:29:00,
2013-10-07 09:44:00,48.8,47.0,29.63,WNW,299,6.0,-999.0,93,-99.99,,,0.02,weatherlink.com 1.10,2013-10-07 13:44:00,
2013-10-07 09:59:00,49.2,47.0,29.64,NW,321,11.0,-999.0,93,-99.99,,,0.02,weatherlink.com 1.10,2013-10-07 13:59:00,
2013-10-07 10:14:00,49.2,47.0,29.64,NNW,333,5.0,-999.0,93,-99.99,,,0.02,weatherlink.com 1.10,2013-10-07 14:14:00,
2013-10-07 10:29:00,49.2,47.0,29.65,NW,321,11.0,-999.0,92,-99.99,,,0.02,weatherlink.com 1.10,2013-10-07 14:29:00,
2013-10-07 10:44:00,49.0,47.0,29.66,NNW,329,7.0,-999.0,91,-99.99,,,0.02,weatherlink.com 1.10,2013-10-07 14:44:00,
2013-10-07 10:59:00,49.1,46.0,29.67,WNW,300,9.0,-999.0,90,-99.99,,,0.02,weatherlink.com 1.10,2013-10-07 14:59:00,
2013-10-07 11:14:00,49.3,46.0,29.68,NW,325,6.0,-999.0,88,-99.99,,,0.02,weatherlink.com 1.10,2013-10-07 15:14:00,
2013-10-07 11:44:00,49.3,45.0,29.70,NW,306,13.0,-999.0,85,-99.99,,,0.02,weatherlink.com 1.10,2013-10-07 15:44:00,
2013-10-07 12:00:00,51.1,46.0,29.71,NW,322,14.0,-999.0,83,-99.99,,,0.02,weatherlink.com 1.10,2013-10-07 16:00:00,
2013-10-07 12:14:00,50.8,45.0,29.72,NW,321,12.0,-999.0,81,-99.99,,,0.02,weatherlink.com 1.10,2013-10-07 16:14:00,
2013-10-07 12:29:00,50.7,44.0,29.73,NW,304,12.0,-999.0,77,-99.99,,,0.02,weatherlink.com 1.10,2013-10-07 16:29:00,
2013-10-07 12:44:00,52.0,44.0,29.73,NNW,328,10.0,-999.0,75,-99.99,,,0.02,weatherlink.com 1.10,2013-10-07 16:44:00,
2013-10-07 12:59:00,52.7,46.0,29.74,NNW,331,10.0,-999.0,77,-99.99,,,0.02,weatherlink.com 1.10,2013-10-07 16:59:00,
2013-10-07 13:15:00,51.3,44.0,29.75,WNW,301,10.0,-999.0,76,-99.99,,,0.02,weatherlink.com 1.10,2013-10-07 17:15:00,
2013-10-07 13:30:00,51.5,45.0,29.75,NW,313,12.0,-999.0,77,-99.99,,,0.02,weatherlink.com 1.10,2013-10-07 17:30:00,
2013-10-07 13:45:00,52.4,44.0,29.76,WNW,292,8.0,-999.0,74,-99.99,,,0.02,weatherlink.com 1.10,2013-10-07 17:45:00,
2013-10-07 14:00:00,51.5,43.0,29.76,NNW,336,13.0,-999.0,74,-99.99,,,0.02,weatherlink.com 1.10,2013-10-07 18:00:00,
2013-10-07 14:15:00,51.9,42.0,29.76,WNW,288,6.0,-999.0,70,-99.99,,,0.02,weatherlink.com 1.10,2013-10-07 18:15:00,
2013-10-07 14:30:00,51.6,43.0,29.77,NNW,336,4.0,-999.0,73,-99.99,,,0.02,weatherlink.com 1.10,2013-10-07 18:30:00,
2013-10-07 14:45:00,51.3,43.0,29.78,NW,306,6.0,-999.0,74,-99.99,,,0.02,weatherlink.com 1.10,2013-10-07 18:45:00,
2013-10-07 15:00:00,51.6,44.0,29.78,West,268,12.0,-999.0,75,-99.99,,,0.02,weatherlink.com 1.10,2013-10-07 19:00:00,
2013-10-07 15:30:00,51.5,44.0,29.80,NW,308,15.0,-999.0,75,-99.99,,,0.02,weatherlink.com 1.10,2013-10-07 19:30:00,
2013-10-07 15:45:00,52.4,44.0,29.81,NW,306,14.0,-999.0,73,-99.99,,,0.02,weatherlink.com 1.10,2013-10-07 19:45:00,
2013-10-07 16:00:00,50.9,44.0,29.82,WNW,300,7.0,-999.0,77,-99.99,,,0.02,weatherlink.com 1.10,2013-10-07 20:00:00,
2013-10-07 16:15:00,50.9,44.0,29.83,NW,304,4.0,-999.0,78,-99.99,,,0.02,weatherlink.com 1.10,2013-10-07 20:15:00,
2013-10-07 16:30:00,51.0,44.0,29.84,NNW,336,11.0,-999.0,78,-99.99,,,0.02,weatherlink.com 1.10,2013-10-07 20:30:00,
2013-10-07 16:45:00,51.1,44.0,29.85,North,360,5.0,-999.0,78,-99.99,,,0.02,weatherlink.com 1.10,2013-10-07 20:45:00,
2013-10-07 17:00:00,51.1,45.0,29.86,WNW,296,10.0,-999.0,79,-99.99,,,0.02,weatherlink.com 1.10,2013-10-07 21:00:00,
2013-10-07 17:15:00,51.5,45.0,29.87,WNW,292,11.0,-999.0,79,-99.99,,,0.02,weatherlink.com 1.10,2013-10-07 21:15:00,
2013-10-07 17:30:00,51.6,45.0,29.87,NW,309,5.0,-999.0,78,-99.99,,,0.02,weatherlink.com 1.10,2013-10-07 21:30:00,
2013-10-07 17:45:00,51.2,45.0,29.88,WNW,293,8.0,-999.0,78,-99.99,,,0.02,weatherlink.com 1.10,2013-10-07 21:45:00,
2013-10-07 18:00:00,51.4,44.0,29.89,WNW,300,6.0,-999.0,77,-99.99,,,0.02,weatherlink.com 1.10,2013-10-07 22:00:00,
2013-10-07 18:15:00,51.2,45.0,29.90,NW,315,7.0,-999.0,78,-99.99,,,0.02,weatherlink.com 1.10,2013-10-07 22:15:00,
2013-10-07 18:30:00,50.0,45.0,29.92,WNW,290,8.0,-999.0,83,-99.99,,,0.02,weatherlink.com 1.10,2013-10-07 22:30:00,
2013-10-07 18:45:00,49.9,45.0,29.93,West,268,5.0,-999.0,83,-99.99,,,0.02,weatherlink.com 1.10,2013-10-07 22:45:00,
2013-10-07 19:00:00,49.8,45.0,29.94,NW,323,5.0,-999.0,83,-99.99,,,0.02,weatherlink.com 1.10,2013-10-07 23:00:00,
2013-10-07 19:16:00,50.4,44.0,29.95,WNW,294,11.0,-999.0,80,-99.99,,,0.02,weatherlink.com 1.10,2013-10-07 23:16:00,
2013-10-07 19:31:00,50.6,44.0,29.95,WNW,295,12.0,-999.0,79,-99.99,,,0.02,weatherlink.com 1.10,2013-10-07 23:31:00,
2013-10-07 19:46:00,50.5,43.0,29.96,WNW,303,12.0,-999.0,76,-99.99,,,0.02,weatherlink.com 1.10,2013-10-07 23:46:00,
2013-10-07 20:01:00,50.1,42.0,29.97,NW,309,4.0,-999.0,75,-99.99,,,0.02,weatherlink.com 1.10,2013-10-08 00:01:00,
2013-10-07 20:16:00,50.0,42.0,29.98,WNW,296,5.0,-999.0,74,-99.99,,,0.02,weatherlink.com 1.10,2013-10-08 00:16:00,
2013-10-07 20:31:00,50.1,42.0,29.99,NW,307,3.0,-999.0,74,-99.99,,,0.02,weatherlink.com 1.10,2013-10-08 00:31:00,
2013-10-07 20:46:00,50.6,42.0,30.00,West,266,12.0,-999.0,72,-99.99,,,0.02,weatherlink.com 1.10,2013-10-08 00:46:00,
2013-10-07 21:01:00,50.2,41.0,30.02,WNW,298,5.0,-999.0,72,-99.99,,,0.02,weatherlink.com 1.10,2013-10-08 01:01:00,
2013-10-07 21:16:00,49.1,42.0,30.03,WNW,298,2.0,-999.0,75,-99.99,,,0.02,weatherlink.com 1.10,2013-10-08 01:16:00,
2013-10-07 21:31:00,48.7,41.0,30.04,NW,304,1.0,-999.0,76,-99.99,,,0.02,weatherlink.com 1.10,2013-10-08 01:31:00,
2013-10-07 21:46:00,48.8,43.0,30.04,NW,321,2.0,-999.0,79,-99.99,,,0.02,weatherlink.com 1.10,2013-10-08 01:46:00,
2013-10-07 22:01:00,49.2,42.0,30.05,NW,319,5.0,-999.0,77,-99.99,,,0.02,weatherlink.com 1.10,2013-10-08 02:01:00,
2013-10-07 22:16:00,48.3,42.0,30.05,NW,313,1.0,-999.0,79,-99.99,,,0.02,weatherlink.com 1.10,2013-10-08 02:16:00,
2013-10-07 22:31:00,46.7,42.0,30.06,NNW,345,0.0,-999.0,82,-99.99,,,0.02,weatherlink.com 1.10,2013-10-08 02:31:00,
2013-10-07 22:46:00,46.7,42.0,30.07,NNW,345,0.0,-999.0,84,-99.99,,,0.02,weatherlink.com 1.10,2013-10-08 02:46:00,
2013-10-07 23:01:00,46.8,43.0,30.08,NNW,345,0.0,-999.0,87,-99.99,,,0.02,weatherlink.com 1.10,2013-10-08 03:01:00,
2013-10-07 23:16:00,46.4,43.0,30.09,NNW,345,0.0,-999.0,88,-99.99,,,0.02,weatherlink.com 1.10,2013-10-08 03:16:00,
2013-10-07 23:31:00,45.0,42.0,30.09,NNW,345,0.0,-999.0,88,-99.99,,,0.02,weatherlink.com 1.10,2013-10-08 03:31:00,
2013-10-07 23:46:00,43.9,41.0,30.09,NNW,345,0.0,-999.0,89,-99.99,,,0.02,weatherlink.com 1.10,2013-10-08 03:46:00,